Wind_Speed
13 13 13 13 13 13 12 10 10 10 10 12 14 14 14 14 16 17 18 19 18 15 13 13 12 10 9 8 7 7 7 6 6 5 4 3 3 2 1 1 1 1 1
13 13 14 14 14 13 12 11 9 8 8 11 14 15 15 15 16 17 18 19 18 17 15 15 14 12 11 10 9 8 8 8 7 6 5 4 3 3 1 1 0 0 1
14 15 15 15 16 15 13 11 8 7 7 9 12 15 15 16 17 18 19 19 18 17 15 16 16 14 13 11 10 9 9 9 8 7 6 5 4 4 3 2 2 1 1
14 15 15 15 15 14 11 8 7 7 7 9 11 13 15 16 17 18 20 20 19 18 16 16 16 15 14 12 11 10 10 10 9 8 7 7 6 5 5 4 4 3 3
14 14 14 14 13 11 8 7 8 7 7 7 10 12 15 17 17 18 19 20 20 18 17 16 16 16 15 13 12 11 11 10 10 9 9 8 7 7 7 6 6 6 6
12 12 12 12 12 10 9 8 7 7 7 8 10 11 13 16 18 19 19 20 19 18 17 17 16 17 15 14 14 13 12 12 11 11 10 10 9 8 8 8 8 8 8
10 10 11 12 11 11 10 9 8 7 7 8 10 12 14 16 17 20 20 20 20 19 18 17 17 17 16 16 15 14 14 14 13 12 12 12 11 11 11 11 11 11 11
9 10 10 11 11 11 11 9 9 8 7 8 10 12 14 16 17 19 21 21 21 21 20 19 18 18 18 17 17 16 16 15 15 14 14 13 13 13 13 13 13 13 14
9 10 10 11 12 12 11 9 9 8 8 8 10 11 13 15 17 19 21 22 22 21 21 20 19 19 18 18 17 17 17 17 17 17 16 16 16 16 16 16 16 16 16
11 11 11 12 13 13 12 10 9 8 9 10 11 12 13 15 16 18 19 22 22 22 22 21 21 20 20 19 18 18 18 18 18 19 18 18 18 18 18 18 18 18 18
12 12 12 13 13 13 12 11 10 9 9 9 10 11 13 15 16 16 18 20 21 22 22 22 22 22 21 20 20 20 20 20 20 20 20 20 20 20 20 20 20 21 21
13 14 13 12 12 12 11 10 9 9 9 9 10 10 10 12 13 14 17 19 21 22 22 22 23 23 22 22 22 22 22 22 22 22 22 22 22 22 22 22 22 23 23
13 13 13 12 12 12 12 11 9 9 8 8 8 9 9 11 12 12 15 18 19 21 22 22 23 23 23 23 23 23 23 23 24 23 23 23 24 24 24 24 25 25 25
12 12 13 13 13 12 12 10 9 9 9 9 8 9 10 11 12 12 14 17 18 19 20 21 22 23 23 23 22 22 22 22 23 23 24 24 25 25 26 26 27 27 27
14 14 14 14 13 12 11 11 10 10 10 10 9 9 10 11 13 13 14 16 18 19 19 21 22 22 23 22 22 23 23 23 23 24 24 25 26 26 27 28 29 29 29
16 16 16 15 14 13 12 11 11 10 10 11 10 11 11 11 12 13 14 15 17 18 19 21 22 21 21 21 22 23 24 24 24 25 26 26 27 28 29 31 31 31 31
19 18 19 17 15 14 14 13 12 11 11 11 11 12 12 12 12 13 14 15 17 18 18 20 20 20 20 20 22 23 24 25 26 27 28 28 29 31 31 32 32 32 33
20 20 20 18 17 15 14 14 13 13 12 12 12 13 13 13 14 14 15 16 17 18 19 19 20 21 21 22 24 26 27 28 28 29 30 31 32 33 33 33 33 34 35
21 21 20 19 18 18 17 15 15 14 14 13 14 14 14 15 14 15 15 16 17 18 18 19 20 21 22 23 25 27 28 29 29 30 30 31 32 33 34 35 36 37 38
23 22 22 21 21 20 19 18 17 16 15 15 15 15 15 14 15 15 16 17 18 19 20 21 22 23 24 25 27 27 28 29 30 31 31 32 33 35 35 37 38 40 40
24 23 23 22 22 21 21 20 19 18 17 17 17 16 16 16 16 17 18 19 20 20 21 22 23 23 24 25 26 27 28 29 31 31 32 33 34 36 38 39 40 41 41
24 24 24 23 22 21 21 20 19 20 19 18 18 17 17 18 18 19 19 20 21 21 22 23 24 24 25 26 27 28 30 31 32 33 33 34 34 36 38 39 41 42 43
24 24 23 23 22 22 22 22 21 20 20 20 19 19 19 19 20 21 21 22 23 23 24 24 25 26 27 27 28 29 30 31 32 33 34 35 37 38 40 41 42 43 45
23 23 22 21 21 21 21 21 22 21 21 20 20 20 21 21 22 23 23 23 23 24 25 26 26 26 27 28 29 30 31 32 33 35 36 38 39 40 42 43 44 46 47
22 22 22 22 21 21 20 20 20 20 21 21 21 22 22 23 24 24 24 25 26 26 26 27 27 27 28 30 31 32 33 35 36 38 39 40 42 42 43 45 46 47 49
20 20 20 20 20 21 21 20 20 21 22 22 22 22 22 23 24 25 25 26 26 26 27 28 29 29 31 32 34 35 36 37 39 41 42 42 43 43 44 45 46 48 49
Wind_Direction
319 316 316 315 311 306 302 293 280 259 251 238 231 226 224 223 220 219 219 220 222 227 231 230 230 231 234 232 233 231 227 225 225 227 229 238 249 258 284 348 3 9 355
316 315 313 312 312 309 300 292 289 275 252 236 228 225 224 223 219 220 220 220 222 226 229 228 227 227 231 231 232 233 230 228 227 228 230 232 233 232 225 237 181 54 14
308 309 308 309 309 305 300 296 292 278 258 243 230 229 225 223 219 217 219 220 221 223 226 228 228 228 230 229 230 233 231 228 226 226 227 227 228 231 238 242 238 246 263
303 305 306 306 306 304 299 286 293 274 260 246 234 230 224 224 220 218 219 219 220 221 227 228 225 225 227 228 230 232 231 227 224 224 226 227 230 237 243 250 250 251 256
295 302 302 303 305 308 311 297 290 276 255 248 240 230 223 223 222 219 216 216 218 223 225 225 223 224 226 228 230 231 230 226 223 224 228 232 237 241 246 251 255 259 262
292 300 302 301 305 307 310 301 288 279 261 250 241 231 223 223 222 221 217 217 219 221 222 224 225 226 226 228 230 233 233 230 227 227 232 238 242 247 253 257 261 264 268
293 297 298 304 306 305 301 299 292 278 262 252 242 233 224 220 220 220 219 219 220 222 222 223 225 225 225 227 230 234 235 232 232 234 239 242 247 252 256 260 264 267 270
290 295 303 308 311 309 302 299 292 272 261 253 244 236 227 223 222 221 220 220 220 222 223 225 226 227 227 230 234 235 237 236 235 238 243 246 250 254 257 260 264 267 269
288 297 308 311 314 316 309 303 296 281 267 254 239 236 233 228 226 222 220 221 222 222 224 227 229 229 229 233 234 236 239 239 239 242 246 250 253 256 258 260 264 267 269
291 297 303 311 311 313 310 300 296 288 274 260 248 243 236 232 229 227 224 223 224 225 228 230 229 230 232 236 238 240 240 241 242 243 246 251 254 257 259 261 264 267 270
291 292 296 306 308 313 311 302 297 287 274 262 257 247 237 232 227 228 226 225 224 227 230 231 231 232 234 236 241 243 244 245 245 245 249 253 256 258 260 262 264 266 269
290 290 291 303 307 311 311 303 301 292 283 269 259 244 230 226 227 228 229 229 229 230 233 234 234 235 236 238 243 246 248 250 250 250 253 256 259 260 261 262 265 267 269
291 291 295 299 300 303 308 305 294 293 290 279 264 246 234 230 231 232 228 229 232 232 234 236 236 238 241 243 247 248 249 250 252 255 258 259 261 262 262 263 266 269 270
290 290 294 298 298 297 299 300 297 294 287 277 266 252 242 237 234 235 232 230 231 235 238 240 242 245 246 247 248 249 250 252 253 256 260 261 262 263 264 266 268 269 271
285 288 288 295 296 295 294 298 291 290 285 277 265 256 247 242 238 237 238 238 238 239 242 244 245 247 248 248 248 250 252 257 260 262 263 262 264 266 266 268 270 271 272
281 283 286 287 291 290 287 292 292 288 283 271 264 261 255 250 246 244 244 243 241 242 244 247 247 249 250 251 252 255 259 262 263 265 266 267 266 268 269 270 272 272 273
278 281 284 282 282 283 283 286 288 285 283 276 266 264 262 257 252 250 248 245 243 246 249 250 250 252 253 254 255 258 261 262 265 267 268 269 270 270 270 271 273 274 274
276 278 279 276 276 279 281 282 280 280 278 275 269 266 264 259 255 254 251 247 247 249 251 253 255 255 255 255 257 259 261 263 266 268 270 271 271 271 271 273 274 275 276
273 275 275 274 274 278 277 276 276 274 272 271 269 267 265 263 258 255 251 248 248 251 252 255 258 258 258 259 263 265 265 266 268 270 271 273 274 273 272 273 276 278 278
271 271 271 271 272 273 273 273 272 269 270 267 269 267 267 264 259 258 251 251 252 252 254 257 259 261 262 264 266 268 269 269 270 272 273 274 275 275 275 276 277 279 280
269 269 270 269 269 270 269 268 267 266 265 265 265 265 266 264 261 259 256 256 256 257 260 262 263 265 267 269 270 270 271 271 272 272 274 276 277 278 277 278 279 281 281
268 269 268 267 267 267 266 264 266 264 263 263 264 265 264 262 262 262 261 261 260 262 264 264 266 267 268 270 270 271 273 274 273 275 275 277 278 279 279 280 282 282 282
265 266 267 266 264 266 266 264 261 262 262 263 263 262 262 261 260 260 261 263 265 265 267 268 271 272 273 274 275 276 277 278 278 278 278 279 281 282 282 282 283 283 284
264 263 263 264 267 266 263 261 257 258 260 261 261 261 260 259 259 260 263 266 267 269 270 273 273 275 276 277 280 281 281 281 282 282 281 281 282 283 283 283 283 285 285
262 261 260 260 263 262 260 259 257 257 259 260 262 262 260 260 260 261 266 266 266 269 272 274 275 278 280 280 281 282 284 284 283 283 283 283 283 284 285 286 287 288 288
257 258 259 259 260 260 258 257 258 261 260 261 263 263 262 262 263 264 267 266 267 269 271 275 276 278 281 284 283 283 285 285 286 286 287 288 288 288 289 290 290 290 290
Height
5861 5859 5857 5856 5854 5852 5851 5849 5849 5848 5848 5849 5850 5853 5855 5857 5860 5862 5865 5868 5871 5873 5875 5877 5878 5880 5881 5882 5883 5884 5885 5886 5886 5887 5888 5888 5888 5888 5889 5889 5889 5889 5889
5859 5857 5855 5854 5852 5850 5848 5847 5846 5845 5845 5846 5848 5850 5852 5854 5857 5859 5862 5865 5868 5870 5872 5875 5877 5878 5880 5881 5882 5883 5884 5885 5885 5886 5887 5888 5889 5888 5888 5888 5889 5889 5889
5856 5855 5853 5852 5849 5847 5846 5845 5844 5843 5843 5843 5845 5847 5849 5851 5854 5857 5860 5863 5865 5868 5870 5872 5874 5876 5878 5879 5880 5881 5882 5883 5884 5885 5887 5887 5888 5888 5888 5888 5888 5888 5889
5854 5853 5851 5849 5847 5845 5843 5842 5842 5841 5841 5841 5842 5844 5846 5849 5851 5854 5857 5860 5863 5866 5868 5870 5872 5874 5876 5877 5879 5880 5881 5882 5883 5884 5885 5886 5887 5887 5888 5888 5888 5888 5888
5851 5850 5848 5847 5846 5843 5841 5841 5840 5839 5839 5839 5840 5842 5844 5846 5849 5851 5854 5857 5860 5863 5865 5868 5870 5872 5874 5875 5877 5878 5880 5881 5882 5883 5884 5885 5885 5886 5887 5887 5887 5887 5887
5849 5848 5846 5845 5844 5842 5840 5839 5839 5837 5836 5837 5838 5840 5842 5844 5846 5849 5852 5855 5858 5860 5863 5865 5867 5869 5871 5873 5875 5876 5878 5879 5880 5881 5882 5883 5884 5884 5885 5885 5886 5886 5886
5847 5846 5845 5844 5842 5840 5838 5837 5836 5835 5835 5835 5836 5837 5839 5841 5844 5846 5849 5852 5855 5858 5860 5863 5865 5867 5868 5870 5872 5874 5875 5877 5878 5879 5880 5881 5882 5882 5883 5884 5884 5884 5884
5845 5844 5844 5842 5841 5839 5837 5835 5834 5834 5833 5833 5833 5834 5836 5838 5841 5843 5846 5849 5852 5855 5857 5860 5862 5864 5866 5868 5869 5871 5873 5874 5875 5877 5878 5879 5879 5880 5880 5881 5881 5881 5882
5843 5843 5842 5840 5839 5837 5835 5833 5832 5831 5831 5831 5831 5832 5833 5835 5837 5840 5843 5846 5849 5851 5854 5857 5859 5861 5862 5864 5866 5868 5869 5871 5872 5873 5875 5875 5876 5877 5877 5878 5878 5879 5879
5841 5841 5840 5838 5837 5835 5833 5832 5830 5829 5828 5828 5829 5829 5831 5832 5834 5836 5839 5842 5845 5848 5851 5853 5855 5857 5859 5861 5863 5864 5866 5867 5868 5870 5871 5872 5872 5873 5873 5874 5874 5874 5875
5839 5838 5837 5836 5835 5833 5831 5829 5828 5827 5826 5826 5826 5826 5827 5829 5831 5833 5836 5838 5841 5844 5846 5849 5851 5853 5855 5857 5859 5860 5862 5863 5864 5865 5866 5867 5868 5869 5869 5869 5870 5870 5870
5837 5836 5835 5833 5832 5831 5828 5827 5826 5825 5824 5823 5823 5824 5824 5826 5828 5830 5832 5835 5837 5840 5842 5845 5847 5849 5851 5853 5854 5856 5857 5859 5860 5860 5861 5862 5863 5864 5864 5864 5864 5865 5864
5834 5833 5832 5831 5830 5828 5827 5825 5824 5823 5823 5822 5822 5822 5822 5824 5826 5827 5829 5831 5834 5836 5839 5841 5843 5845 5846 5848 5850 5851 5852 5853 5854 5855 5856 5857 5857 5858 5858 5859 5859 5859 5859
5831 5830 5829 5828 5827 5826 5824 5823 5822 5822 5821 5821 5820 5820 5821 5821 5823 5825 5826 5828 5830 5832 5835 5837 5839 5840 5842 5843 5845 5846 5847 5848 5849 5850 5850 5851 5851 5852 5852 5852 5852 5852 5852
5827 5827 5826 5825 5824 5823 5822 5821 5820 5819 5819 5819 5819 5819 5820 5820 5821 5822 5824 5825 5827 5829 5831 5832 5834 5836 5837 5838 5840 5841 5842 5843 5843 5844 5844 5845 5845 5845 5845 5845 5845 5845 5844
5823 5823 5822 5822 5821 5820 5819 5818 5817 5817 5816 5816 5816 5817 5817 5818 5818 5820 5821 5822 5823 5825 5827 5828 5829 5831 5832 5833 5834 5836 5836 5837 5837 5838 5838 5838 5838 5838 5838 5838 5837 5837 5836
5818 5818 5818 5817 5817 5816 5816 5815 5815 5814 5814 5814 5814 5814 5815 5815 5816 5817 5817 5818 5820 5821 5823 5824 5825 5826 5827 5828 5829 5830 5830 5831 5831 5831 5831 5831 5831 5831 5830 5829 5829 5828 5827
5812 5812 5812 5812 5812 5812 5812 5811 5811 5811 5811 5811 5811 5811 5811 5812 5812 5813 5813 5814 5815 5817 5818 5819 5820 5821 5821 5822 5823 5823 5824 5824 5824 5824 5824 5823 5823 5822 5822 5821 5820 5819 5818
5806 5807 5807 5807 5807 5807 5807 5807 5807 5807 5807 5807 5807 5807 5807 5807 5808 5809 5809 5810 5811 5812 5813 5814 5815 5815 5816 5816 5817 5817 5817 5816 5816 5816 5816 5815 5814 5814 5813 5812 5811 5809 5808
5800 5800 5801 5801 5802 5802 5802 5802 5803 5803 5803 5803 5803 5803 5803 5803 5804 5805 5805 5806 5806 5807 5808 5809 5809 5809 5810 5810 5810 5809 5809 5808 5808 5808 5807 5806 5805 5804 5803 5802 5801 5799 5797
5793 5793 5794 5795 5795 5796 5796 5796 5797 5798 5798 5798 5799 5799 5799 5799 5800 5800 5801 5801 5801 5802 5803 5803 5803 5803 5803 5803 5802 5802 5802 5800 5799 5799 5798 5797 5796 5794 5793 5791 5790 5788 5786
5786 5786 5787 5788 5789 5789 5790 5790 5791 5791 5792 5793 5793 5794 5794 5794 5795 5795 5795 5796 5796 5797 5797 5797 5797 5797 5796 5796 5795 5794 5794 5792 5791 5790 5789 5788 5786 5785 5783 5781 5779 5776 5774
5779 5780 5780 5781 5782 5783 5783 5785 5786 5786 5787 5787 5788 5789 5789 5789 5790 5790 5790 5790 5790 5791 5790 5790 5790 5790 5789 5788 5787 5786 5785 5783 5782 5781 5780 5778 5776 5774 5772 5770 5767 5764 5762
5772 5773 5774 5774 5776 5776 5777 5778 5779 5780 5781 5781 5782 5782 5783 5783 5784 5784 5784 5784 5784 5784 5783 5783 5782 5782 5781 5780 5779 5778 5776 5775 5774 5772 5770 5768 5766 5763 5761 5758 5755 5752 5749
5765 5766 5767 5768 5769 5770 5771 5772 5773 5774 5774 5775 5775 5776 5776 5777 5777 5777 5778 5778 5778 5777 5776 5775 5775 5774 5773 5772 5771 5769 5768 5766 5764 5762 5759 5756 5754 5751 5748 5745 5742 5738 5735
5759 5760 5761 5762 5763 5764 5765 5766 5767 5768 5768 5769 5769 5769 5770 5770 5770 5771 5771 5770 5770 5770 5769 5768 5767 5766 5765 5764 5762 5760 5758 5756 5753 5750 5747 5744 5741 5738 5735 5731 5728 5724 5720